Theta_e
335 338 340 341 342 345 347 348 350 351 354 354 356 355 354 356 356 354 360 355 349 347 350 353 360 360 356 358 360 361 365 368 359
333 338 339 341 342 344 347 348 350 351 354 353 354 355 355 355 355 356 359 356 355 349 354 354 360 360 361 363 364 364 363 357 359
328 336 339 341 342 344 346 348 349 352 352 353 355 354 354 353 355 356 356 356 355 353 354 357 357 359 360 362 362 364 365 359 361
328 332 337 341 343 345 346 348 349 350 352 353 354 353 353 353 352 354 355 353 355 356 359 359 358 359 359 359 360 362 363 364 359
329 334 336 339 343 344 346 347 350 350 352 352 353 354 353 351 353 351 351 352 353 355 358 361 361 361 361 362 362 363 362 361 356
331 333 336 338 341 343 346 347 350 351 353 353 353 354 351 350 350 350 349 351 353 355 358 359 360 361 361 362 360 361 360 361 360
332 334 336 338 340 343 346 348 349 352 352 354 353 353 352 350 349 350 348 351 354 356 361 359 359 361 361 360 361 361 358 359 360
331 332 334 335 338 341 346 348 351 352 353 354 354 353 352 351 355 353 354 356 356 357 359 360 361 359 359 358 356 355 359 359 358
329 332 333 336 336 340 343 347 350 351 353 353 355 354 354 355 355 354 353 356 357 358 358 359 359 359 356 355 353 340 341 349 359
329 332 335 337 339 339 343 345 349 349 353 355 354 354 356 356 357 356 356 356 357 358 358 361 358 356 355 354 357 335 336 339 346
328 330 334 338 341 342 342 347 348 352 354 355 355 355 355 356 358 357 358 358 357 358 358 357 355 354 354 354 354 333 331 335 348
329 330 332 338 342 345 343 346 350 352 353 354 354 354 355 357 357 358 359 358 357 358 358 356 355 352 348 348 348 329 328 336 348
328 330 333 335 341 348 346 346 351 352 352 354 354 355 357 359 356 359 359 361 360 354 356 354 348 349 348 339 348 336 326 335 353
328 330 333 336 341 347 349 345 350 351 353 353 357 358 358 358 360 359 360 351 358 356 356 355 353 349 352 353 354 356 324 323 353
327 328 333 335 338 343 352 349 350 352 352 357 359 358 359 357 359 357 356 344 340 346 348 354 354 351 352 357 359 329 322 319 320
326 327 332 335 338 341 351 351 352 350 355 358 358 357 355 356 356 356 354 346 345 343 344 349 349 349 347 347 351 350 319 318 319
326 326 331 334 335 339 340 352 353 355 357 360 358 356 356 355 353 351 354 351 350 351 351 348 350 346 346 346 341 343 347 343 340
326 327 331 333 333 338 340 340 354 355 358 359 357 357 356 355 354 355 361 354 349 350 357 346 352 348 344 337 339 341 332 330 343
326 326 330 331 334 339 340 341 352 355 358 359 357 355 355 354 353 361 350 349 346 307 310 304 303 304 322 341 314 305 304 302 301
325 328 329 332 333 338 345 342 348 353 359 358 358 363 355 354 358 350 349 349 347 345 321 303 301 301 303 305 302 300 299 299 301
Wind_Speed
6 10 14 16 17 17 19 19 18 17 16 13 15 13 12 11 11 9 8 9 9 8 8 9 10 9 9 9 7 5 4 4 6
5 11 13 16 17 18 18 18 18 19 16 16 15 14 12 12 11 10 9 10 7 7 6 7 8 10 9 7 7 8 6 5 6
2 8 13 15 16 16 16 17 17 18 17 17 16 15 13 12 12 12 9 8 10 8 8 7 9 9 9 9 9 8 7 6 7
9 4 9 13 15 16 16 16 16 17 18 16 15 15 13 13 13 12 11 10 10 9 9 9 10 10 10 9 9 9 8 7 4
12 8 7 10 14 16 16 16 15 16 17 16 15 14 14 14 14 13 13 11 11 10 9 9 10 10 9 8 9 8 9 10 10
13 12 3 6 11 14 15 16 16 16 17 17 15 13 14 14 15 14 13 13 11 11 9 9 9 10 10 8 7 7 8 9 10
13 12 7 5 8 11 12 14 16 15 16 15 16 16 15 15 15 16 15 14 13 12 10 10 10 10 9 9 7 7 7 7 8
12 12 12 8 7 9 12 14 15 15 16 16 17 16 16 16 14 14 13 13 13 12 11 10 8 8 8 8 8 9 10 8 8
12 13 12 11 11 10 11 14 15 16 17 17 17 17 17 15 14 14 14 13 12 12 12 11 9 9 9 9 8 5 3 4 7
12 13 14 14 12 11 11 13 14 16 16 16 17 17 16 15 14 14 14 13 13 13 12 9 10 10 9 10 9 7 7 5 7
12 14 14 13 12 10 11 12 14 14 16 16 16 16 15 15 15 14 14 14 13 11 10 11 10 9 8 7 7 7 7 9 9
14 15 14 14 13 13 10 9 12 14 16 16 16 16 16 15 15 14 14 14 14 12 11 10 10 8 6 7 6 10 10 9 10
15 16 15 16 17 14 8 10 11 15 16 16 17 16 17 16 14 16 16 15 12 10 12 11 7 8 8 8 9 7 9 8 8
15 16 16 16 14 13 8 8 12 15 15 16 15 15 15 15 15 14 13 10 6 9 8 7 10 10 8 11 11 7 6 7 8
15 16 16 14 12 12 10 7 12 14 15 14 14 16 15 16 15 13 11 11 3 7 4 6 7 9 8 6 8 2 7 5 9
13 14 14 12 11 11 12 6 10 14 13 13 15 16 16 14 13 12 14 8 8 7 6 8 8 8 10 8 7 6 6 5 6
12 12 13 12 12 11 9 9 9 11 11 13 15 15 16 14 14 15 15 13 13 10 10 11 8 9 9 8 6 7 8 6 6
12 11 13 12 11 10 11 13 10 12 11 13 14 14 14 15 13 14 13 14 11 12 9 6 9 10 7 7 8 8 4 1 6
11 11 13 12 13 12 10 11 10 12 12 14 14 13 12 11 11 9 11 11 8 14 12 11 8 9 6 6 9 8 9 8 9
12 13 14 13 12 11 6 9 10 0 9 12 12 10 13 11 8 12 12 10 10 10 5 11 11 10 10 9 8 9 8 9 8
Wind_Direction
157 186 186 188 185 181 183 187 184 182 183 187 188 188 189 191 191 188 191 198 181 193 187 179 149 180 180 186 191 204 181 197 234
178 188 189 193 186 187 191 189 186 184 176 183 191 188 182 186 192 196 203 176 198 197 204 157 177 181 188 192 202 195 194 226 214
331 199 194 189 191 193 193 199 191 186 176 184 188 183 183 185 190 198 192 182 199 193 191 224 175 195 193 197 202 211 202 198 191
4 274 205 196 193 192 196 200 198 190 184 189 184 189 182 184 186 191 193 192 197 203 201 202 204 206 204 206 210 210 212 239 244
9 334 272 209 192 191 191 198 199 197 187 191 190 186 180 188 187 193 192 202 194 203 205 205 206 205 208 211 215 211 216 226 237
7 355 295 232 201 194 193 191 198 199 190 190 189 185 185 186 189 192 200 195 202 201 200 207 209 207 215 217 217 219 233 233 233
357 1 344 270 229 199 196 196 197 198 194 190 189 184 189 189 193 192 198 195 197 204 196 208 206 211 215 222 223 222 230 223 225
4 0 349 324 247 224 198 197 196 199 197 191 190 188 188 193 194 195 202 197 195 198 206 217 221 221 226 229 234 235 218 235 243
360 353 344 336 311 237 219 209 203 195 197 190 192 192 194 190 189 192 199 199 200 201 204 214 222 226 230 238 252 118 114 289 272
355 349 341 335 324 278 229 219 206 202 195 188 190 193 196 187 185 193 198 198 203 206 203 207 212 220 227 234 237 142 173 198 271
356 350 339 332 321 310 258 222 198 203 189 191 188 192 193 188 186 192 194 197 197 202 201 201 208 212 220 227 229 174 212 203 254
349 347 338 325 324 310 275 238 197 194 197 190 189 186 189 186 189 187 191 192 186 189 187 179 184 189 204 225 233 183 199 209 243
337 336 339 325 324 311 263 235 204 196 203 193 195 188 188 185 182 192 193 193 179 172 171 175 188 217 219 239 256 246 185 209 245
324 323 328 329 321 318 295 223 210 204 207 202 196 189 181 183 184 190 185 121 181 190 180 203 202 218 218 248 264 251 179 208 250
318 316 321 329 322 327 307 233 209 210 211 201 189 184 172 173 176 191 153 153 175 203 208 232 208 228 224 231 229 247 168 210 255
307 307 309 321 319 313 315 245 218 217 211 200 186 179 175 172 173 177 156 170 201 229 200 233 218 220 216 211 207 197 144 200 226
303 300 299 312 319 315 311 292 221 226 207 196 190 187 186 178 171 168 162 182 203 196 202 208 212 218 225 222 207 212 185 194 190
298 296 296 307 309 299 295 293 219 213 199 192 190 186 184 186 193 190 172 188 186 194 191 202 199 215 212 212 210 216 156 170 218
294 293 294 295 297 293 296 298 218 204 189 188 188 182 178 176 185 166 180 162 143 44 75 82 78 61 32 111 84 70 94 98 78
290 289 283 280 294 304 331 329 196 349 177 178 184 191 170 162 161 180 170 173 177 171 90 73 68 69 67 57 76 105 114 114 116